TimeEDT,TemperatureF,Dew PointF,Humidity,Sea Level PressureIn,VisibilityMPH,Wind Direction,Wind SpeedMPH,Gust SpeedMPH,PrecipitationIn,Events,Conditions,WindDirDegrees,DateUTC
12:14 AM,30.6,20.1,65,30.27,10.0,West,6.9,-,N/A,,Clear,270,2013-03-28 04:14:00
12:35 AM,30.2,20.1,66,30.27,10.0,West,5.8,-,N/A,,Clear,270,2013-03-28 04:35:00
12:54 AM,28.9,20.8,72,30.27,10.0,West,3.5,-,N/A,,Clear,280,2013-03-28 04:54:00
1:14 AM,28.0,20.3,73,30.27,10.0,West,6.9,-,N/A,,Clear,280,2013-03-28 05:14:00
1:35 AM,28.2,20.5,73,30.27,10.0,West,6.9,-,N/A,,Clear,280,2013-03-28 05:35:00
1:54 AM,28.2,20.3,72,30.27,10.0,WNW,6.9,-,N/A,,Clear,290,2013-03-28 05:54:00
2:14 AM,28.9,20.3,70,30.27,10.0,WNW,6.9,-,N/A,,Clear,290,2013-03-28 06:14:00
2:35 AM,27.9,20.3,73,30.28,10.0,West,5.8,-,N/A,,Clear,280,2013-03-28 06:35:00
2:54 AM,27.5,20.3,74,30.28,10.0,WNW,5.8,-,N/A,,Clear,290,2013-03-28 06:54:00
3:15 AM,27.5,20.5,75,30.27,10.0,WNW,4.6,-,N/A,,Clear,290,2013-03-28 07:15:00
3:34 AM,27.7,21.4,77,30.27,10.0,WNW,4.6,-,N/A,,Clear,300,2013-03-28 07:34:00
3:54 AM,29.1,22.1,75,30.27,10.0,NW,4.6,-,N/A,,Clear,310,2013-03-28 07:54:00
4:15 AM,30.2,23.0,75,30.27,10.0,WNW,5.8,-,N/A,,Clear,300,2013-03-28 08:15:00
4:34 AM,29.7,22.8,76,30.27,10.0,WNW,5.8,-,N/A,,Clear,300,2013-03-28 08:34:00
4:55 AM,28.9,22.6,77,30.27,10.0,Calm,Calm,-,N/A,,Clear,0,2013-03-28 08:55:00
5:15 AM,28.4,22.6,79,30.27,10.0,West,4.6,-,N/A,,Clear,280,2013-03-28 09:15:00
5:34 AM,28.2,22.5,79,30.27,10.0,West,4.6,-,N/A,,Clear,270,2013-03-28 09:34:00
5:55 AM,28.4,23.0,80,30.27,10.0,West,6.9,-,N/A,,Clear,280,2013-03-28 09:55:00
6:15 AM,28.4,23.0,80,30.27,10.0,WNW,6.9,-,N/A,,Clear,290,2013-03-28 10:15:00
6:34 AM,27.5,22.1,80,30.27,10.0,West,5.8,-,N/A,,Clear,280,2013-03-28 10:34:00
6:55 AM,27.1,22.1,81,30.27,10.0,West,6.9,-,N/A,,Clear,280,2013-03-28 10:55:00
7:14 AM,27.5,22.6,82,30.27,10.0,West,6.9,-,N/A,,Clear,280,2013-03-28 11:14:00
7:34 AM,27.7,22.6,81,30.28,10.0,WNW,5.8,-,N/A,,Clear,290,2013-03-28 11:34:00
7:55 AM,28.2,23.0,81,30.29,10.0,WNW,5.8,-,N/A,,Clear,290,2013-03-28 11:55:00
8:14 AM,30.6,24.8,79,30.29,10.0,West,6.9,-,N/A,,Clear,280,2013-03-28 12:14:00
8:34 AM,32.0,26.2,79,30.29,10.0,WNW,6.9,-,N/A,,Clear,290,2013-03-28 12:34:00
8:55 AM,33.8,27.1,77,30.29,10.0,WNW,9.2,-,N/A,,Clear,290,2013-03-28 12:55:00
9:14 AM,35.4,27.0,71,30.30,10.0,WNW,6.9,-,N/A,,Clear,300,2013-03-28 13:14:00
9:35 AM,36.5,27.3,69,30.30,10.0,WNW,8.1,-,N/A,,Clear,300,2013-03-28 13:35:00
9:55 AM,37.6,27.5,67,30.30,10.0,NW,9.2,-,N/A,,Clear,320,2013-03-28 13:55:00
10:14 AM,38.8,27.5,64,30.30,10.0,WNW,8.1,-,N/A,,Clear,290,2013-03-28 14:14:00
10:35 AM,40.1,27.0,59,30.30,10.0,NW,5.8,-,N/A,,Clear,310,2013-03-28 14:35:00
10:55 AM,40.6,26.4,57,30.31,10.0,West,8.1,-,N/A,,Clear,280,2013-03-28 14:55:00
11:14 AM,41.9,25.7,53,30.31,10.0,WNW,8.1,-,N/A,,Clear,290,2013-03-28 15:14:00
11:35 AM,43.3,26.8,52,30.31,10.0,WNW,9.2,-,N/A,,Clear,290,2013-03-28 15:35:00
11:54 AM,44.6,26.4,49,30.30,10.0,NW,8.1,-,N/A,,Clear,310,2013-03-28 15:54:00
12:14 PM,45.7,25.0,44,30.30,10.0,NNW,5.8,-,N/A,,Clear,340,2013-03-28 16:14:00
12:35 PM,46.4,24.8,43,30.30,10.0,WNW,9.2,-,N/A,,Clear,290,2013-03-28 16:35:00
12:54 PM,47.1,24.8,42,30.30,10.0,WNW,11.5,-,N/A,,Clear,300,2013-03-28 16:54:00
1:15 PM,47.3,23.9,40,30.29,10.0,WNW,5.8,-,N/A,,Clear,300,2013-03-28 17:15:00
1:34 PM,47.3,22.1,37,30.29,10.0,Calm,Calm,-,N/A,,Scattered Clouds,0,2013-03-28 17:34:00
1:54 PM,48.0,21.7,36,30.29,10.0,NW,5.8,-,N/A,,Scattered Clouds,310,2013-03-28 17:54:00
2:15 PM,48.6,20.8,34,30.29,10.0,West,5.8,-,N/A,,Scattered Clouds,270,2013-03-28 18:15:00
2:34 PM,49.5,23.2,36,30.28,10.0,NNW,8.1,16.1,N/A,,Scattered Clouds,340,2013-03-28 18:34:00
2:55 PM,48.4,22.3,36,30.28,10.0,West,10.4,-,N/A,,Scattered Clouds,280,2013-03-28 18:55:00
3:15 PM,50.0,22.6,34,30.27,10.0,NW,10.4,16.1,N/A,,Mostly Cloudy,320,2013-03-28 19:15:00
3:34 PM,48.4,21.6,35,30.27,10.0,NNW,10.4,-,N/A,,Scattered Clouds,340,2013-03-28 19:34:00
3:55 PM,48.0,21.7,36,30.26,10.0,West,8.1,-,N/A,,Scattered Clouds,270,2013-03-28 19:55:00
4:15 PM,49.3,22.1,34,30.26,10.0,WNW,10.4,17.3,N/A,,Mostly Cloudy,290,2013-03-28 20:15:00
4:34 PM,49.6,22.3,34,30.26,10.0,NW,10.4,-,N/A,,Scattered Clouds,310,2013-03-28 20:34:00
4:55 PM,48.9,22.6,36,30.26,10.0,WNW,12.7,17.3,N/A,,Scattered Clouds,290,2013-03-28 20:55:00
5:15 PM,48.0,22.1,36,30.26,10.0,WNW,10.4,-,N/A,,Clear,300,2013-03-28 21:15:00
5:34 PM,48.6,22.8,36,30.26,10.0,NW,12.7,16.1,N/A,,Clear,310,2013-03-28 21:34:00
5:55 PM,47.5,22.1,37,30.26,10.0,NW,11.5,16.1,N/A,,Clear,320,2013-03-28 21:55:00
6:14 PM,47.1,22.1,37,30.26,10.0,WNW,10.4,-,N/A,,Clear,290,2013-03-28 22:14:00
6:35 PM,46.4,21.6,37,30.26,10.0,NW,10.4,-,N/A,,Clear,320,2013-03-28 22:35:00
6:54 PM,45.7,21.7,39,30.27,10.0,WNW,9.2,-,N/A,,Clear,290,2013-03-28 22:54:00
7:15 PM,44.4,21.0,39,30.27,10.0,WNW,10.4,-,N/A,,Clear,300,2013-03-28 23:15:00
7:35 PM,43.2,21.2,42,30.27,10.0,WNW,9.2,-,N/A,,Clear,300,2013-03-28 23:35:00
7:54 PM,42.1,21.9,45,30.27,10.0,WNW,8.1,-,N/A,,Clear,300,2013-03-28 23:54:00
8:15 PM,39.9,22.1,49,30.27,10.0,WNW,5.8,-,N/A,,Clear,300,2013-03-29 00:15:00
8:35 PM,38.3,21.9,52,30.28,10.0,WNW,3.5,-,N/A,,Clear,290,2013-03-29 00:35:00
8:54 PM,36.1,22.6,58,30.28,10.0,WNW,5.8,-,N/A,,Clear,300,2013-03-29 00:54:00
9:15 PM,35.2,23.0,61,30.28,10.0,WNW,3.5,-,N/A,,Clear,290,2013-03-29 01:15:00
9:34 PM,34.7,22.5,61,30.28,10.0,Calm,Calm,-,N/A,,Clear,0,2013-03-29 01:34:00
9:55 PM,34.2,21.2,59,30.29,10.0,Calm,Calm,-,N/A,,Clear,0,2013-03-29 01:55:00
10:14 PM,33.3,21.0,61,30.29,10.0,Calm,Calm,-,N/A,,Clear,0,2013-03-29 02:14:00
10:35 PM,32.0,21.4,65,30.30,10.0,Calm,Calm,-,N/A,,Clear,0,2013-03-29 02:35:00
10:55 PM,32.2,21.7,65,30.30,10.0,Calm,Calm,-,N/A,,Clear,0,2013-03-29 02:55:00
11:14 PM,30.2,21.2,69,30.30,10.0,Calm,Calm,-,N/A,,Clear,0,2013-03-29 03:14:00
11:35 PM,29.7,21.2,71,30.30,10.0,Calm,Calm,-,N/A,,Clear,0,2013-03-29 03:35:00
11:54 PM,30.0,21.0,69,30.30,10.0,Calm,Calm,-,N/A,,Clear,0,2013-03-29 03:54:00